[[{"header":{"parameterUnit":"m.s-1","parameterCategory":1,"la1":30.2991,"la2":30.254,"lo1":-89.0895,"lo2":-89.0444,"dy":0.0017,"dx":0.0017,"nx":28,"ny":28,"refTime":"2025-01-03T09:00:00:Z","depth":0,"parameterNumber":2,"parameterNumberName":"U-component_of_WINDS"},"data":[0,0,0,0,0,0,0,0,0,0,0,0,0,0,0,0,0,0,0,0,0,0,0,0,0,0,0,0,0,0,0,0,0,0,0,0,0,0,0,0,0,0,0,0,0,0,0,0,0,0,0,0,0,0,0,0,0,0,-1.7835,-1.7835,0,-1.783,-1.783,-1.783,-1.773,-1.7727,-1.7725,-1.7722,-1.7721,-1.7723,-1.7725,0,0,0,0,0,0,0,0,0,0,0,0,0,-1.7761,-1.7763,-1.7835,-1.7835,-1.7835,-1.783,-1.783,-1.783,-1.773,-1.7727,-1.7724,-1.7721,-1.772,-1.7723,-1.7726,0,0,0,0,0,0,0,0,0,0,0,0,0,-1.7778,-1.7763,-1.7835,-1.7784,-1.778,-1.783,-1.783,-1.783,-1.7731,-1.7727,-1.7723,-1.772,-1.7719,-1.7722,-1.7726,-1.7825,0,0,-1.7737,-1.7738,0,0,0,0,0,0,0,0,-1.7777,-1.7781,-1.7792,-1.7788,-1.7783,-1.7776,-1.7803,-1.7828,-1.7732,-1.775,-1.7722,-1.7718,-1.7743,-1.7744,-1.7752,-1.7824,-1.7824,-1.7737,-1.7739,-1.7741,-1.7742,0,0,0,0,0,0,0,-1.7776,-1.7781,-1.7833,-1.7792,-1.7787,-1.7763,-1.7761,-1.7807,-1.7768,-1.7748,-1.7741,-1.7741,-1.7739,-1.7748,-1.7751,-1.7824,-1.7737,-1.774,-1.7742,-1.7744,-1.7978,-1.7981,0,0,0,0,0,0,-1.7782,-1.778,-1.7833,-1.7833,-1.7771,-1.7767,-1.7765,-1.7783,-1.7767,-1.7761,-1.7745,-1.7737,-1.7744,-1.7747,-1.775,-1.7864,-1.7741,-1.7744,-1.7746,-1.7973,-1.7978,-1.7983,0,0,0,0,0,0,-1.7781,-1.7787,-1.7833,-1.7805,-1.7809,-1.7773,-1.7793,-1.7784,-1.7793,-1.7764,-1.7757,-1.7761,-1.7741,-1.7745,-1.7806,-1.7863,-1.7745,-1.7749,-1.7969,-1.7975,-1.7981,-1.8094,0,0,0,0,0,0,-1.7779,-1.7787,-1.7824,-1.7806,-1.781,-1.7889,-1.7796,-1.7787,-1.7799,-1.7789,-1.7778,-1.7772,-1.7739,-1.7802,-1.781,-1.7866,-1.7751,-1.7963,-1.7971,-1.7979,-1.8085,-1.8103,-1.8119,0,0,0,0,0,-1.7777,-1.7857,-1.7826,-1.7833,-1.7855,-1.7893,-1.7895,-1.7854,-1.7804,-1.7841,-1.7822,-1.7773,-1.7856,-1.7809,-1.7817,-1.7875,-1.796,-1.7969,-1.7978,-1.8078,-1.81,-1.8119,0,0,0,0,0,0,-1.7884,-1.7854,-1.782,-1.7896,-1.7898,-1.7876,-1.7921,-1.7879,-1.7895,-1.7885,-1.7833,-1.7832,-1.7901,-1.7894,-1.7843,-1.7969,-1.7899,-1.791,-1.7972,-1.7993,-1.8009,-1.801,-1.7754,0,0,0,0,0,-1.7916,-1.7948,-1.792,-1.7991,-1.7993,-1.7957,-1.7972,-1.794,-1.7939,-1.794,-1.7926,-1.7928,-1.7954,-1.7973,-1.7996,-1.8083,-1.808,-1.8127,-1.8144,-1.8158,-1.8169,-1.8215,-1.8235,-1.8013,-1.8013,-1.8013,0,0,-1.7984,-1.7972,-1.7995,-1.8012,-1.8009,-1.8044,-1.7958,-1.7999,-1.8025,-1.7946,-1.8003,-1.7993,-1.7992,-1.8067,-1.8099,-1.8063,-1.8229,-1.817,-1.8181,-1.8184,-1.8226,-1.8247,-1.8266,-1.802,-1.8018,-1.8017,0,0,-1.8126,-1.8119,-1.8177,-1.8176,-1.8172,-1.8147,-1.8161,-1.8145,-1.8135,-1.8191,-1.8133,-1.8163,-1.8209,-1.8211,-1.8218,-1.8359,-1.8314,-1.8368,-1.8457,-1.8502,-1.852,-1.8535,-1.8585,-1.8604,-1.8379,-1.8379,-1.8379,0,-1.8211,-1.826,-1.8213,-1.8257,-1.8266,-1.8195,-1.8254,-1.8255,-1.826,-1.8268,-1.8228,-1.8284,-1.8279,-1.8353,-1.8387,-1.8395,-1.841,-1.8369,-1.8521,-1.8536,-1.8549,-1.8597,-1.8616,-1.8386,-1.8385,-1.8384,-1.8384,0,-1.8365,-1.84,-1.8447,-1.8452,-1.8466,-1.8518,-1.8479,-1.85,-1.8466,-1.8446,-1.8504,-1.8495,-1.8514,-1.8529,-1.8498,-1.8599,-1.8577,-1.8529,-1.8457,-1.8578,-1.8622,-1.8639,-1.8395,-1.8393,-1.8391,-1.8389,0,0,-1.8574,-1.8551,-1.857,-1.8571,-1.8561,-1.8588,-1.8636,-1.8654,-1.8673,-1.8678,-1.8718,-1.8758,-1.8714,-1.8722,-1.869,-1.8729,-1.8842,-1.8676,-1.8676,-1.8708,-1.8953,-1.8989,-1.9011,-1.8812,-1.8815,-1.8817,-1.8953,0,-1.8711,-1.8791,-1.8749,-1.8835,-1.8867,-1.88,-1.8842,-1.8841,-1.8824,-1.8849,-1.8829,-1.8859,-1.8798,-1.8803,-1.8839,-1.8821,-1.8891,-1.881,-1.8849,-1.8851,-1.8851,-1.9034,-1.9072,-1.9201,-1.897,-1.8973,-1.8975,0,-1.8881,-1.8892,-1.8981,-1.8964,-1.8976,-1.9015,-1.9027,-1.9052,-1.905,-1.9034,-1.9043,-1.9001,-1.9048,-1.8976,-1.904,-1.8987,-1.9,-1.8993,-1.8997,-1.9,-1.892,-1.9041,-1.9241,-1.926,-1.9002,-1.8999,-1.8998,0,-1.9025,-1.9062,-1.912,-1.9123,-1.9106,-1.9134,-1.9128,-1.9122,-1.9135,-1.9147,-1.9155,-1.9172,-1.9182,-1.9197,-1.9161,-1.9112,-1.923,-1.9155,-1.9219,-1.922,-1.9247,-1.9246,-1.9452,-1.9256,-1.9255,-1.9255,-1.9255,0,-1.9182,-1.9239,-1.9184,-1.922,-1.9282,-1.9234,-1.9297,-1.9284,-1.9279,-1.9311,-1.9255,-1.9287,-1.9237,-1.9264,-1.9237,-1.9294,-1.9299,-1.9288,-1.928,-1.9293,-1.9295,-1.9301,-1.9292,-1.926,-1.9259,-1.9258,-1.9257,0,-1.9353,-1.9319,-1.9377,-1.9356,-1.9352,-1.9398,-1.938,-1.9412,-1.939,-1.9432,-1.9439,-1.9406,-1.9435,-1.94,-1.9427,-1.9408,-1.9486,-1.9464,-1.9486,-1.948,-1.9546,-1.954,-1.9763,-1.979,-1.9577,-1.9579,-1.9581,0,-1.9456,-1.9498,-1.948,-1.9497,-1.9494,-1.9523,-1.9535,-1.949,-1.9506,-1.9506,-1.9539,-1.9562,-1.9579,-1.9629,-1.9607,-1.9627,-1.9606,-1.9683,-1.9609,-1.962,-1.9607,-1.9605,-1.9609,-1.9698,-1.9701,-1.9703,-1.9704,0,-1.9641,-1.9622,-1.9642,-1.9656,-1.9672,-1.9682,-1.9687,-1.9705,-1.9657,-1.9678,-1.9706,-1.9719,-1.9745,-1.977,-1.9784,-1.9778,-1.9734,-1.9728,-1.9743,-1.9757,-1.9768,-1.9763,-1.9528,-1.9723,-1.9721,-1.972,-1.9719,-1.9718,-1.9781,-1.9815,-1.9807,-1.9832,-1.983,-1.9837,-1.9866,-1.9847,-1.9869,-1.9886,-1.9858,-1.9894,-1.989,-1.9904,-1.9904,-1.9931,-1.9899,-1.9921,-1.9927,-1.9934,-1.9943,-1.9764,-1.9934,-1.9933,-1.9933,-1.9932,-1.9932,0,-1.9963,-1.9955,-1.9977,-1.9986,-2.0005,-1.996,-1.9963,-1.9983,-2.0014,-2.0014,-2.0031,-2.0064,-2.0087,-2.0067,-2.0087,-2.0113,-2.0093,-2.012,-2.0117,-2.0117,-1.9972,-1.9956,-2.0135,-2.0135,-2.0135,-2.0135,-2.0135,-2.0135,-2.006,-2.0115,-2.0095,-2.0149,-2.014,-2.0174,-2.018,-2.0185,-2.0185,-2.0223,-2.0242,-2.0228,-2.022,-2.0238,-2.0258,-2.0252,-2.0262,-2.0296,-2.0282,-2.0147,-2.0127,-2.0108,-2.0093,-2.0298,-2.0298,-2.0424,-2.0426,-2.0427]},{"header":{"parameterUnit":"m.s-1","parameterCategory":1,"la1":30.2991,"la2":30.254,"lo1":-89.0895,"lo2":-89.0444,"dy":0.0017,"dx":0.0017,"nx":28,"ny":28,"refTime":"2025-01-03T09:00:00:Z","depth":0,"parameterNumber":3,"parameterNumberName":"V-component_of_WINDS"},"data":[0,0,0,0,0,0,0,0,0,0,0,0,0,0,0,0,0,0,0,0,0,0,0,0,0,0,0,0,0,0,0,0,0,0,0,0,0,0,0,0,0,0,0,0,0,0,0,0,0,0,0,0,0,0,0,0,0,0,-3.0409,-3.0409,0,-3.044,-3.044,-3.044,-3.0382,-3.038,-3.0378,-3.0376,-3.0406,-3.0408,-3.0411,0,0,0,0,0,0,0,0,0,0,0,0,0,-3.0297,-3.03,-3.0409,-3.0409,-3.041,-3.0439,-3.044,-3.044,-3.0382,-3.038,-3.0377,-3.0375,-3.0405,-3.0408,-3.0411,0,0,0,0,0,0,0,0,0,0,0,0,0,-3.0339,-3.03,-3.0409,-3.0384,-3.0382,-3.0439,-3.044,-3.044,-3.0383,-3.038,-3.0377,-3.0374,-3.0404,-3.0407,-3.0411,-3.0493,0,0,-3.0423,-3.0425,0,0,0,0,0,0,0,0,-3.0336,-3.0343,-3.0387,-3.0386,-3.0384,-3.0404,-3.0411,-3.0458,-3.0383,-3.0382,-3.0376,-3.0373,-3.0407,-3.0411,-3.0423,-3.0494,-3.0496,-3.0423,-3.0426,-3.0427,-3.0429,0,0,0,0,0,0,0,-3.0334,-3.0341,-3.0421,-3.0388,-3.0386,-3.0371,-3.0374,-3.042,-3.0411,-3.0382,-3.0378,-3.0383,-3.0406,-3.0419,-3.0423,-3.0496,-3.0423,-3.0427,-3.0429,-3.0431,-3.0636,-3.0639,0,0,0,0,0,0,-3.0334,-3.0339,-3.042,-3.0422,-3.0353,-3.0375,-3.0378,-3.04,-3.041,-3.0409,-3.0385,-3.038,-3.0414,-3.0418,-3.0424,-3.052,-3.0427,-3.0431,-3.0433,-3.0633,-3.0637,-3.064,0,0,0,0,0,0,-3.0332,-3.0342,-3.0419,-3.0379,-3.0388,-3.038,-3.0406,-3.0402,-3.0416,-3.0412,-3.041,-3.0401,-3.0412,-3.0418,-3.0476,-3.052,-3.0433,-3.0436,-3.0629,-3.0634,-3.0638,-3.0713,0,0,0,0,0,0,-3.0329,-3.0341,-3.0373,-3.0381,-3.039,-3.0472,-3.0408,-3.0405,-3.0423,-3.0416,-3.0426,-3.0425,-3.041,-3.0471,-3.048,-3.0524,-3.0439,-3.0625,-3.0631,-3.0637,-3.0706,-3.0719,-3.0731,0,0,0,0,0,-3.0325,-3.0392,-3.0375,-3.0385,-3.043,-3.0474,-3.048,-3.0462,-3.0427,-3.0458,-3.0455,-3.0425,-3.0514,-3.0477,-3.0487,-3.0533,-3.0622,-3.0629,-3.0636,-3.0701,-3.0717,-3.073,0,0,0,0,0,0,-3.0389,-3.0393,-3.0374,-3.0445,-3.046,-3.0464,-3.0503,-3.0479,-3.0504,-3.0496,-3.0472,-3.0475,-3.0538,-3.0541,-3.05,-3.0612,-3.0562,-3.0571,-3.0608,-3.0623,-3.0635,-3.0632,-3.0443,0,0,0,0,0,-3.0412,-3.0449,-3.0449,-3.0513,-3.0521,-3.0511,-3.053,-3.0515,-3.0529,-3.0534,-3.0536,-3.055,-3.0581,-3.0602,-3.063,-3.0707,-3.0707,-3.0743,-3.0755,-3.0765,-3.0773,-3.0813,-3.0829,-3.0663,-3.0663,-3.0663,0,0,-3.0459,-3.0465,-3.049,-3.0526,-3.0535,-3.0573,-3.0517,-3.0559,-3.0586,-3.054,-3.0595,-3.0597,-3.0611,-3.0679,-3.0708,-3.0683,-3.0819,-3.0774,-3.0782,-3.0785,-3.0822,-3.0838,-3.0852,-3.0668,-3.0667,-3.0666,0,0,-3.0564,-3.0573,-3.0626,-3.0637,-3.0652,-3.0645,-3.0658,-3.0666,-3.0666,-3.0721,-3.0687,-3.0719,-3.0773,-3.0785,-3.0798,-3.0907,-3.0879,-3.0917,-3.098,-3.1019,-3.1032,-3.1044,-3.1082,-3.1096,-3.0925,-3.0925,-3.0925,0,-3.062,-3.0676,-3.0656,-3.0701,-3.0718,-3.0679,-3.0732,-3.0743,-3.0767,-3.0779,-3.0751,-3.0818,-3.0825,-3.0894,-3.0921,-3.0932,-3.0946,-3.0915,-3.1032,-3.1043,-3.1054,-3.109,-3.1105,-3.093,-3.0929,-3.0929,-3.0928,0,-3.0744,-3.0783,-3.0825,-3.085,-3.0871,-3.092,-3.0907,-3.093,-3.0913,-3.0909,-3.0965,-3.0972,-3.1001,-3.1016,-3.1,-3.1083,-3.1067,-3.1036,-3.0985,-3.1074,-3.1108,-3.1122,-3.0936,-3.0934,-3.0933,-3.0932,0,0,-3.089,-3.0903,-3.0919,-3.0929,-3.0944,-3.0973,-3.102,-3.1049,-3.107,-3.1088,-3.1126,-3.1173,-3.1144,-3.1158,-3.1143,-3.1178,-3.1263,-3.1142,-3.1142,-3.1164,-3.1355,-3.1378,-3.1395,-3.1245,-3.1248,-3.125,-3.1354,0,-3.0993,-3.1075,-3.1059,-3.1138,-3.1174,-3.1138,-3.1178,-3.1191,-3.1189,-3.1218,-3.1214,-3.1248,-3.1207,-3.1216,-3.1249,-3.1246,-3.1301,-3.1238,-3.128,-3.1281,-3.1277,-3.1413,-3.1437,-3.1535,-3.1367,-3.1369,-3.1371,0,-3.1125,-3.1149,-3.1232,-3.1241,-3.1255,-3.1292,-3.1317,-3.1346,-3.136,-3.1355,-3.1372,-3.135,-3.1396,-3.1345,-3.1407,-3.1365,-3.138,-3.1382,-3.1385,-3.1388,-3.1331,-3.1419,-3.1566,-3.158,-3.1391,-3.139,-3.1388,0,-3.1223,-3.1275,-3.1332,-3.1342,-3.1354,-3.1381,-3.1386,-3.1397,-3.1415,-3.1437,-3.1449,-3.1475,-3.149,-3.1511,-3.1496,-3.146,-3.1561,-3.1509,-3.1558,-3.1558,-3.158,-3.1579,-3.1732,-3.1591,-3.1591,-3.1591,-3.1591,0,-3.134,-3.1393,-3.1376,-3.1411,-3.1468,-3.1449,-3.1506,-3.1507,-3.1517,-3.1551,-3.1521,-3.1553,-3.1532,-3.1562,-3.1551,-3.1604,-3.1611,-3.1608,-3.1604,-3.1611,-3.1611,-3.162,-3.1613,-3.1595,-3.1594,-3.1593,-3.1592,0,-3.1459,-3.145,-3.1509,-3.1515,-3.1518,-3.156,-3.1565,-3.1597,-3.1592,-3.1635,-3.1644,-3.1636,-3.167,-3.1658,-3.1694,-3.1686,-3.1754,-3.1742,-3.175,-3.1747,-3.1796,-3.1792,-3.196,-3.1981,-3.1828,-3.1829,-3.1831,0,-3.1534,-3.1574,-3.1585,-3.1605,-3.1614,-3.1648,-3.1667,-3.1649,-3.1669,-3.1688,-3.1717,-3.1749,-3.1773,-3.1829,-3.1826,-3.1854,-3.1842,-3.1899,-3.1845,-3.185,-3.1842,-3.184,-3.1843,-3.1909,-3.1911,-3.1913,-3.1914,0,-3.1669,-3.1663,-3.1691,-3.1719,-3.1743,-3.1763,-3.1781,-3.1799,-3.1782,-3.1807,-3.1842,-3.1861,-3.1898,-3.193,-3.1954,-3.1959,-3.1934,-3.1931,-3.1943,-3.195,-3.1953,-3.1952,-3.1779,-3.1927,-3.1925,-3.1924,-3.1924,-3.1923,-3.1768,-3.1801,-3.1814,-3.1847,-3.1859,-3.1876,-3.1907,-3.1906,-3.1935,-3.1964,-3.1952,-3.1992,-3.2004,-3.2034,-3.2043,-3.2073,-3.2051,-3.207,-3.2074,-3.2079,-3.2085,-3.1949,-3.2078,-3.2077,-3.2077,-3.2077,-3.2076,0,-3.1901,-3.1907,-3.1938,-3.1964,-3.199,-3.1964,-3.1983,-3.2006,-3.2042,-3.2055,-3.208,-3.212,-3.2151,-3.215,-3.2178,-3.2203,-3.2192,-3.2211,-3.2208,-3.221,-3.2104,-3.209,-3.2219,-3.2219,-3.2219,-3.2219,-3.2219,-3.2219,-3.1973,-3.2028,-3.2023,-3.2084,-3.2089,-3.2129,-3.2142,-3.2157,-3.2168,-3.2214,-3.224,-3.224,-3.2247,-3.2276,-3.2302,-3.2301,-3.2313,-3.2336,-3.2331,-3.2232,-3.2217,-3.2204,-3.2191,-3.2339,-3.2339,-3.2434,-3.2435,-3.2436]}]]